Location: Treviso
(45.6669°N, 12.2430°E)
Time: 07:10:56
(UTC+02:00)

ISS - Pass Details

Date: 20 May 2018
Orbit: 402 x 407 km, 51.6° (Epoch: 21 May)

Event Time Altitude Azimuth Distance (km) Brightness Sun altitude
Rises 03:12:49 0° 297° (WNW) 2,320 0.0 -18.5°
Reaches altitude 10° 03:14:59 10° 306° (NW) 1,459 -1.0 -18.3°
Maximum altitude 03:18:04 39° 17° (NNE) 625 -2.4 -18.0°
Drops below altitude 10° 03:21:10 10° 88° (E) 1,455 -0.6 -17.7°
Sets 03:23:19 0° 96° (E) 2,313 0.4 -17.5°
